Total_Precipitation_Accumulation
0.25 0.45 0.62 0.57 0.63 0.66 0.50 0.43 0.47 0.45 0.36 0.36 0.37 0.31 0.32 0.31 0.28 0.25 0.22 0.19 0.17 0.15 0.16 0.14 0.14 0.17 0.20 0.25 0.31 0.37 0.54 0.70 0.86 0.98 1.13 1.38 1.54 1.64 1.63 1.63 1.70 1.62 1.43 1.52
0.37 0.39 0.36 0.40 0.43 0.47 0.45 0.41 0.41 0.38 0.28 0.26 0.25 0.22 0.21 0.24 0.24 0.21 0.18 0.17 0.14 0.10 0.08 0.06 0.07 0.10 0.12 0.16 0.22 0.30 0.44 0.67 0.92 1.15 1.33 1.52 1.84 2.00 2.00 2.06 2.01 1.96 1.84 1.86
0.30 0.29 0.29 0.34 0.37 0.38 0.39 0.33 0.33 0.34 0.33 0.23 0.19 0.18 0.17 0.19 0.20 0.17 0.13 0.13 0.11 0.08 0.07 0.06 0.05 0.06 0.07 0.09 0.14 0.21 0.34 0.57 0.88 1.19 1.45 1.64 1.88 2.14 2.24 2.15 2.10 2.13 2.21 2.26
0.31 0.28 0.25 0.28 0.28 0.32 0.41 0.27 0.25 0.22 0.26 0.24 0.17 0.22 0.20 0.19 0.20 0.18 0.15 0.14 0.13 0.11 0.10 0.09 0.07 0.06 0.07 0.10 0.13 0.17 0.32 0.48 0.72 0.99 1.32 1.57 1.84 2.15 2.22 2.20 2.17 2.21 2.33 2.42
0.30 0.27 0.23 0.24 0.23 0.24 0.32 0.20 0.17 0.17 0.19 0.18 0.14 0.20 0.20 0.18 0.23 0.22 0.21 0.21 0.19 0.15 0.15 0.13 0.11 0.11 0.12 0.15 0.18 0.24 0.38 0.53 0.74 0.98 1.30 1.63 1.82 1.99 2.19 2.20 2.11 2.05 2.11 2.13
0.30 0.24 0.20 0.20 0.18 0.16 0.20 0.16 0.13 0.11 0.12 0.14 0.09 0.19 0.28 0.24 0.23 0.21 0.22 0.23 0.17 0.14 0.15 0.17 0.21 0.22 0.22 0.24 0.30 0.38 0.50 0.72 0.87 0.97 1.12 1.29 1.50 1.78 1.92 2.02 2.06 2.07 2.06 1.94
0.22 0.18 0.13 0.11 0.15 0.13 0.12 0.16 0.22 0.20 0.21 0.17 0.12 0.23 0.34 0.28 0.23 0.22 0.22 0.20 0.19 0.21 0.26 0.33 0.43 0.40 0.37 0.40 0.49 0.56 0.63 0.73 0.79 0.78 0.87 1.00 1.16 1.38 1.52 1.61 1.80 1.87 1.91 1.85
0.16 0.13 0.11 0.09 0.08 0.08 0.08 0.11 0.24 0.30 0.29 0.25 0.28 0.41 0.44 0.36 0.28 0.24 0.21 0.19 0.22 0.29 0.39 0.54 0.66 0.70 0.64 0.62 0.64 0.62 0.63 0.60 0.62 0.66 0.73 0.80 0.87 1.01 1.13 1.21 1.37 1.49 1.49 1.47
0.14 0.10 0.07 0.06 0.05 0.06 0.06 0.07 0.11 0.20 0.20 0.24 0.35 0.51 0.51 0.36 0.29 0.27 0.26 0.23 0.29 0.42 0.57 0.73 0.86 0.93 0.87 0.79 0.72 0.68 0.68 0.65 0.58 0.60 0.69 0.75 0.80 0.81 0.85 0.89 0.88 0.97 1.05 1.08
0.15 0.11 0.06 0.04 0.04 0.05 0.06 0.08 0.12 0.24 0.36 0.39 0.40 0.53 0.60 0.50 0.38 0.36 0.38 0.44 0.55 0.73 0.80 0.91 0.99 0.97 0.96 1.00 0.94 0.77 0.71 0.71 0.66 0.73 0.75 0.72 0.71 0.69 0.67 0.71 0.77 0.78 0.86 0.97
0.16 0.15 0.08 0.04 0.04 0.08 0.10 0.14 0.21 0.34 0.43 0.57 0.69 0.82 0.70 0.57 0.56 0.54 0.56 0.72 0.82 0.93 1.00 1.02 1.08 1.01 0.89 0.89 0.87 0.85 0.79 0.74 0.75 0.80 0.80 0.70 0.67 0.67 0.67 0.65 0.67 0.76 0.85 0.95
0.21 0.26 0.16 0.06 0.09 0.14 0.23 0.36 0.46 0.63 0.65 0.63 0.87 1.06 0.78 0.64 0.65 0.66 0.65 0.63 0.65 0.83 0.95 0.98 1.04 0.97 0.81 0.77 0.68 0.71 0.79 0.79 0.85 0.86 0.79 0.71 0.71 0.74 0.79 0.77 0.70 0.71 0.77 0.79
0.29 0.43 0.35 0.19 0.25 0.33 0.39 0.49 0.61 0.73 0.84 0.83 0.92 1.06 0.83 0.62 0.58 0.63 0.72 0.70 0.67 0.71 0.73 0.72 0.73 0.80 0.76 0.72 0.65 0.70 0.76 0.81 0.85 0.86 0.84 0.76 0.66 0.69 0.75 0.75 0.68 0.65 0.70 0.74
0.26 0.42 0.49 0.39 0.38 0.44 0.43 0.40 0.45 0.67 0.90 0.92 0.98 0.95 0.74 0.62 0.57 0.59 0.65 0.71 0.66 0.56 0.52 0.50 0.46 0.52 0.55 0.57 0.62 0.66 0.77 0.89 0.93 0.91 0.85 0.82 0.76 0.78 0.73 0.64 0.61 0.63 0.63 0.61
0.18 0.19 0.21 0.20 0.19 0.25 0.33 0.35 0.43 0.57 0.75 0.97 0.87 0.67 0.55 0.52 0.48 0.50 0.55 0.49 0.43 0.39 0.37 0.35 0.32 0.32 0.34 0.37 0.45 0.52 0.65 0.81 0.93 0.97 0.92 0.85 0.80 0.70 0.63 0.57 0.51 0.52 0.48 0.47
0.24 0.18 0.08 0.07 0.10 0.16 0.28 0.41 0.54 0.60 0.67 0.69 0.61 0.57 0.42 0.36 0.32 0.32 0.37 0.37 0.36 0.31 0.27 0.24 0.24 0.21 0.23 0.29 0.36 0.36 0.48 0.63 0.74 0.79 0.80 0.81 0.77 0.62 0.54 0.48 0.41 0.40 0.41 0.42
0.10 0.13 0.10 0.07 0.09 0.17 0.40 0.53 0.60 0.59 0.54 0.46 0.43 0.38 0.27 0.24 0.17 0.17 0.22 0.25 0.30 0.28 0.23 0.21 0.20 0.21 0.23 0.30 0.31 0.32 0.41 0.52 0.57 0.61 0.64 0.66 0.61 0.49 0.43 0.35 0.31 0.34 0.36 0.38
0.10 0.13 0.17 0.12 0.13 0.34 0.62 0.51 0.45 0.48 0.38 0.24 0.21 0.21 0.19 0.15 0.11 0.08 0.09 0.11 0.13 0.16 0.16 0.21 0.18 0.17 0.19 0.24 0.29 0.37 0.40 0.41 0.41 0.45 0.49 0.47 0.47 0.43 0.35 0.28 0.28 0.30 0.34 0.37
0.17 0.22 0.25 0.22 0.23 0.42 0.57 0.38 0.34 0.39 0.34 0.17 0.12 0.12 0.09 0.07 0.06 0.03 0.03 0.05 0.06 0.06 0.07 0.10 0.09 0.09 0.10 0.10 0.11 0.14 0.17 0.19 0.23 0.30 0.36 0.40 0.40 0.37 0.31 0.27 0.33 0.40 0.40 0.39
0.30 0.32 0.32 0.31 0.37 0.50 0.39 0.15 0.15 0.28 0.40 0.15 0.07 0.06 0.05 0.04 0.05 0.02 0.03 0.04 0.03 0.02 0.02 0.03 0.03 0.03 0.03 0.02 0.02 0.03 0.05 0.09 0.13 0.19 0.24 0.28 0.31 0.34 0.38 0.46 0.54 0.55 0.52 0.46
0.19 0.25 0.31 0.39 0.57 0.58 0.34 0.13 0.16 0.29 0.42 0.21 0.07 0.03 0.02 0.02 0.02 0.01 0.02 0.03 0.02 0.01 0.01 0.01 0.01 0.01 0.00 0.00 0.00 0.00 0.01 0.02 0.02 0.04 0.10 0.18 0.29 0.35 0.44 0.56 0.59 0.58 0.52 0.44
0.18 0.28 0.39 0.51 0.67 0.75 0.38 0.20 0.23 0.21 0.14 0.11 0.05 0.02 0.01 0.01 0.01 0.01 0.01 0.02 0.01 0.01 0.01 0.00 0.00 0.00 0.00 0.00 0.00 0.00 0.00 0.00 0.01 0.03 0.07 0.13 0.20 0.29 0.42 0.51 0.50 0.50 0.49 0.46
0.18 0.33 0.45 0.50 0.56 0.48 0.28 0.18 0.13 0.09 0.09 0.04 0.02 0.01 0.01 0.00 0.00 0.01 0.01 0.02 0.01 0.01 0.01 0.00 0.00 0.00 0.00 0.00 0.00 0.00 0.00 0.00 0.00 0.01 0.02 0.06 0.11 0.22 0.36 0.39 0.39 0.42 0.45 0.44
0.08 0.11 0.18 0.20 0.16 0.14 0.12 0.09 0.05 0.03 0.04 0.01 0.01 0.01 0.01 0.01 0.00 0.00 0.01 0.01 0.01 0.01 0.01 0.00 0.00 0.00 0.00 0.00 0.00 0.00 0.00 0.00 0.00 0.00 0.00 0.01 0.02 0.05 0.10 0.15 0.20 0.26 0.32 0.33
0.09 0.10 0.17 0.21 0.10 0.05 0.05 0.04 0.03 0.02 0.02 0.01 0.00 0.00 0.00 0.01 0.00 0.00 0.00 0.01 0.01 0.01 0.01 0.00 0.00 0.00 0.00 0.00 0.00 0.00 0.00 0.00 0.00 0.00 0.00 0.01 0.02 0.03 0.04 0.06 0.09 0.12 0.15 0.19
0.05 0.12 0.17 0.20 0.13 0.06 0.04 0.03 0.02 0.02 0.01 0.01 0.01 0.00 0.00 0.00 0.00 0.00 0.00 0.00 0.00 0.01 0.01 0.01 0.00 0.00 0.00 0.00 0.00 0.00 0.00 0.00 0.00 0.00 0.00 0.00 0.01 0.01 0.01 0.02 0.03 0.04 0.06 0.09